CZ-6A DEB, 60793

Orbit data source: Space-Track

CZ-6A DEB, 60793 is space debris in LEO originally from a launch on Tue, 06 Aug 2024 UTC launched from the Taiyaun Space Center, China (TSC). Debris objects in space refer to the collection of defunct objects orbiting the Earth. Examples of debris include non-operational satellites, rocket bodies, and fragments generated from explosions, collisions, or faulty payload assembly.

Loading next visibility...
Identifier
60793, 2024-140FU
Orbit
LEO
Country
Flag of CNCN / PRC
Related business
Manufacturer
SAST
Mission
Spacecraft
Bus & Motor
Unknown
Mass
Unknown
Launch date (UTC)
2024-08-06 (2 years ago)
Launch vehicle
Unknown
Launch site
Taiyaun Space Center, China (TSC)
Object type
Payload
Rocket body
Debris
Shape & HBR
Unknown shape, 0.2 m
Radar Cross Section
Medium (>0.1 m² and <1 m²)

Expand to show TLE details & history
Last TLE update: 14 hours ago

TLE from 14 hours ago
0 CZ-6A DEB
1 60793U 24140FU  26171.27334464  .00000112  00000-0  49930-4 0  9999
2 60793  89.0319 277.4478 0066986 186.1142 173.9235 14.14271571 95719
Epoch: 2026-06-20T06:33Z
TLE epoch observation values (Epoch: 2026-06-20T06:33:36.976Z)
Latitude
-0.00007°
Longitude
-89.4466°
Altitude
895.962 km
Speed
7.379 km/s
True Right ascension
18h 29m 47s
True Declination
0° 00' 00"
Sunlit
Object was in full shadow at epoch
Visualization orbit readout
Latitude
Unknown
Longitude
Unknown
Altitude
Unknown
Speed
Unknown
Apparent Right ascension
Unknown
Apparent Declination
Unknown
Sunlit
N/A
Visualization observer readout
Local Sidereal Time
07:24:40
Azimuth
Unknown
Elevation
Unknown
Doppler factor
Unknown
Orbital elements
Apogee altitude
890.113 km
Perigee altitude
793.387 km
Semi-major axis
7,219.887 km
Eccentricity
0.0067
Inclination
89.0319°
RAAN
277.4478°
Arg. of periapsis
186.1142°
True anomaly
174.00408°
Mean anomaly
173.9235°
Eccentric anomaly
173.96386°
Mean motion
3.53792 °/min
Orbital period
101.75 mins
BSTAR
0.00004993
Loading maneuver chart data...
Computing Atmospheric mass density...
Loading historical data...
Loading historical data...
Loading historical data...
Loading historical data...
Loading historical data...
Loading historical data...
Loading historical data...

Documentation

Showing up to 5 results
|